This demonstration page uses our WeatherBlox Daily Observations layout. Learn more.

Hourly Observations for September 10, 2015

Temp ( °F °C ) Dew Point ( °F °C ) Humidity (%) Winds ( mph kmh ) Pressure ( in mb ) Visibility ( mi km ) Precip ( " mm )
12:15 am 00:15 Clear 64 17.5 60 15.3 87 87 E 12 19 29.91 1013 10 16.0934 0 0
12:35 am 00:35 Clear 62 16.8 59 15 89 89 ESE 10 17 29.91 1013 10 16.0934 0 0
12:55 am 00:55 Clear 62 16.5 59 14.8 90 90 ESE 9 15 29.94 1014 10 16.0934 0 0
1:15 am 01:15 Clear 61 16.3 58 14.6 90 90 ESE 7 11 29.94 1014 10 16.0934 0 0
1:35 am 01:35 Clear 60 15.8 58 14.5 92 92 Calm 29.94 1014 10 16.0934 0 0
1:55 am 01:55 Clear 60 15.6 58 14.3 92 92 ESE 6 9 29.94 1014 10 16.0934 0 0
2:15 am 02:15 Clear 60 15.8 58 14.6 93 93 SE 5 7 29.94 1014 10 16.0934 0 0
2:35 am 02:35 Clear 60 15.5 58 14.2 92 92 WSW 3 6 29.94 1014 10 16.0934 0 0
2:55 am 02:55 Clear 61 16.1 58 14.5 90 90 Calm 29.94 1014 10 16.0934 0 0
3:15 am 03:15 Clear 60 15.5 57 14.1 91 91 SE 3 6 29.94 1014 10 16.0934 0 0
3:35 am 03:35 Clear 59 15 57 13.9 93 93 SSE 5 7 29.97 1015 10 16.0934 0 0
3:55 am 03:55 Clear 59 15 57 14 94 94 S 3 6 29.94 1014 10 16.0934 0 0
4:15 am 04:15 Clear 59 15.1 57 14.1 94 94 S 7 11 29.94 1014 10 16.0934 0 0
4:35 am 04:35 Clear 59 15.2 57 14.1 93 93 SSE 7 11 29.94 1014 10 16.0934 0 0
4:55 am 04:55 Clear 60 15.5 58 14.3 93 93 SSE 6 9 29.91 1013 10 16.0934 0 0
5:15 am 05:15 Clear 60 15.6 58 14.5 93 93 S 6 9 29.91 1013 10 16.0934 0 0
5:35 am 05:35 Clear 60 15.5 58 14.3 93 93 S 6 9 29.91 1013 10 16.0934 0 0
5:55 am 05:55 Clear 60 15.3 57 14.1 93 93 Calm 29.94 1014 10 16.0934 0 0
6:15 am 06:15 Clear 59 15 57 14 94 94 S 3 6 29.94 1014 10 16.0934 0 0
6:35 am 06:35 Clear 58 14.7 56 13.6 93 93 Calm 29.94 1014 10 16.0934 0 0
6:55 am 06:55 Clear 58 14.6 56 13.6 94 94 SSW 5 7 29.97 1015 10 16.0934 0 0
7:15 am 07:15 Sunny 59 14.8 57 13.9 94 94 SSW 3 6 29.97 1015 10 16.0934 0 0
7:35 am 07:35 Sunny 59 15.1 58 14.2 94 94 Calm 29.97 1015 10 16.0934 0 0
7:55 am 07:55 Sunny 59 14.9 57 13.9 94 94 Calm 29.97 1015 7 11.26538 0 0
8:15 am 08:15 Sunny 61 15.9 59 14.8 93 93 NNW 3 6 30 1016 10 16.0934 0 0
8:35 am 08:35 Sunny 62 16.5 60 15.3 93 93 N 5 7 29.97 1015 10 16.0934 0 0
8:55 am 08:55 Sunny 62 16.5 59 15.1 92 92 N 6 9 29.97 1015 10 16.0934 0 0
9:15 am 09:15 Sunny 63 17.2 60 15.6 90 90 NNE 6 9 29.97 1015 10 16.0934 0 0
9:35 am 09:35 Sunny 64 18 60 15.6 86 86 NE 3 6 29.97 1015 10 16.0934 0 0
9:55 am 09:55 Sunny 66 19.1 61 15.9 82 82 Calm 29.97 1015 10 16.0934 0 0
10:15 am 10:15 Sunny 68 19.8 61 16.1 79 79 NNE 3 6 29.94 1014 10 16.0934 0 0
11:35 am 11:35 Mostly Cloudy 74 23.4 61 16.3 64 64 ENE 8 13 29.91 1013 10 16.0934 0 0
11:55 am 11:55 Mostly Cloudy 75 24.1 62 16.5 63 63 ENE 8 13 29.88 1012 10 16.0934 0 0
12:15 pm 12:15 Partly Cloudy 77 24.8 61 15.9 58 58 ENE 10 17 29.88 1012 10 16.0934 0 0
12:35 pm 12:35 Partly Cloudy 78 25.5 61 16.3 57 57 ENE 10 17 29.88 1012 10 16.0934 0 0
12:55 pm 12:55 Partly Cloudy 79 26 60 15.7 53 53 E 12 19 29.88 1012 10 16.0934 0 0
1:15 pm 13:15 Sunny 80 26.8 59 15.1 49 49 ENE 9 15 29.85 1011 10 16.0934 0 0
1:35 pm 13:35 Sunny 81 27 60 15.4 49 49 E 9 15 29.83 1010 10 16.0934 0 0
1:55 pm 13:55 Sunny 81 27.4 59 15.2 47 47 E 9 15 29.83 1010 10 16.0934 0 0
2:15 pm 14:15 Sunny 82 27.5 59 14.8 46 46 NE 6 9 29.83 1010 10 16.0934 0 0
2:35 pm 14:35 Sunny 82 27.8 58 14.4 44 44 ENE 8 13 29.83 1010 10 16.0934 0 0
2:55 pm 14:55 Sunny 83 28.4 58 14.5 43 43 ENE 8 13 29.83 1010 10 16.0934 0 0
3:15 pm 15:15 Partly Cloudy 82 28 59 14.9 45 45 ENE 10 17 29.83 1010 10 16.0934 0 0
3:35 pm 15:35 Partly Cloudy 82 27.6 58 14.6 45 45 E 12 19 29.8 1009 10 16.0934 0 0
3:55 pm 15:55 Partly Cloudy 83 28.2 58 14.5 43 43 ENE 14 22 29.8 1009 10 16.0934 0 0
4:15 pm 16:15 Mostly Cloudy 81 27 60 15.5 49 49 ENE 20 31 29.8 1009 10 16.0934 0 0
4:35 pm 16:35 Partly Cloudy 80 26.5 61 15.9 52 52 ENE 16 26 29.77 1008 10 16.0934 0 0
4:55 pm 16:55 Mostly Cloudy 78 25.3 60 15.6 55 55 NE 17 28 29.83 1010 10 16.0934 0 0
5:15 pm 17:15 Cloudy 72 22.4 56 13.1 56 56 NE 22 35 29.88 1012 10 16.0934 0 0
5:35 pm 17:35 Mostly Cloudy 64 17.6 51 10.6 64 64 NE 31 50 29.91 1013 5 8.0467 0 0
5:55 pm 17:55 Partly Cloudy with Nearby Thunderstorms 61 16 54 12 77 77 NE 16 26 29.94 1014 10 16.0934 0 0
6:15 pm 18:15 Cloudy with Heavy Thunderstorms 60 15.6 56 13.2 86 86 NE 7 11 30 1016 1.25 2.011675 0.2 5.08
6:35 pm 18:35 Mostly Cloudy 63 17.1 58 14.6 85 85 NE 10 17 29.97 1015 10 16.0934 0.2 5.08
6:55 pm 18:55 Partly Cloudy 64 18 60 15.3 84 84 ENE 14 22 29.94 1014 10 16.0934 0.2 5.08
7:15 pm 19:15 Sunny 65 18.3 60 15.6 84 84 NE 10 17 29.97 1015 10 16.0934 0 0
7:35 pm 19:35 Sunny 64 18 59 15.2 84 84 NE 10 17 29.97 1015 10 16.0934 0 0
7:55 pm 19:55 Sunny 63 17.4 58 14.7 84 84 NE 9 15 29.97 1015 10 16.0934 0 0
8:15 pm 20:15 Clear 62 16.7 57 14.1 85 85 ENE 8 13 29.97 1015 10 16.0934 0 0
8:35 pm 20:35 Clear 61 16.2 56 13.5 84 84 NE 10 17 30.03 1017 10 16.0934 0 0
8:55 pm 20:55 Clear 61 16 55 13 83 83 NE 10 17 30.03 1017 10 16.0934 0 0
9:15 pm 21:15 Clear 60 15.6 55 13 85 85 E 9 15 30.03 1017 10 16.0934 0 0
9:35 pm 21:35 Clear 60 15.7 55 12.9 84 84 E 10 17 30.03 1017 10 16.0934 0 0
9:55 pm 21:55 Clear 59 15 55 12.8 87 87 NE 7 11 30.06 1018 10 16.0934 0 0
10:15 pm 22:15 Clear 58 14.3 55 12.6 90 90 NNE 8 13 30.06 1018 10 16.0934 0 0
10:35 pm 22:35 Clear 57 13.7 54 12.4 92 92 NNE 7 11 30.09 1019 10 16.0934 0 0
10:55 pm 22:55 Clear 56 13.6 55 12.5 93 93 NE 6 9 30.09 1019 10 16.0934 0 0
11:15 pm 23:15 Clear 56 13.6 54 12.2 91 91 NNE 6 9 30.09 1019 10 16.0934 0 0
11:35 pm 23:35 Clear 55 13 53 11.8 92 92 N 6 9 30.12 1020 10 16.0934 0 0
11:55 pm 23:55 Clear 55 12.6 53 11.7 94 94 N 3 6 30.12 1020 10 16.0934 0 0

Powered by AerisWeather